Wind_Speed
33 40 39 36 34 27 34 35 33 25 21 20 19 18 19 16 18 18 16 17 17 13 8 3 4 6 7 9 9 7 5 6 9 14 15 16 18 21 25 27 28 28 27 29 30 32 34 36 35
28 40 42 39 37 34 23 29 35 30 23 22 27 24 23 22 23 28 25 19 19 18 17 11 9 8 9 9 11 14 13 13 14 12 13 15 16 18 20 22 24 25 26 27 29 30 31 31 31
26 35 45 43 42 37 29 29 29 31 25 22 24 25 26 26 28 24 26 28 27 25 21 21 19 16 15 17 17 17 17 18 18 18 20 19 18 18 22 24 24 24 25 26 29 31 30 26 26
25 27 41 46 46 41 34 34 28 25 29 28 22 18 18 29 33 32 30 31 32 29 27 25 24 23 22 21 22 26 22 21 22 25 25 24 26 26 27 27 27 29 30 29 28 30 30 30 31
25 26 30 41 44 46 44 39 36 31 30 28 30 25 23 26 29 32 31 31 30 31 31 30 30 31 30 29 30 30 30 28 29 27 31 33 32 29 31 32 32 33 32 32 34 33 32 32 33
25 24 24 27 41 44 47 48 40 37 29 28 21 33 31 23 25 34 38 37 40 42 42 40 35 33 35 35 36 36 38 39 40 39 37 38 40 40 37 39 40 37 37 38 38 39 42 41 42
28 28 30 30 29 37 45 47 47 40 29 19 25 31 34 35 33 38 36 39 35 40 42 41 41 39 39 42 43 44 48 51 50 45 44 43 43 45 45 47 50 48 47 47 46 45 46 46 46
27 31 32 29 28 30 40 44 48 43 33 29 33 36 36 42 34 36 39 37 35 41 40 41 43 43 43 45 49 51 52 51 51 51 50 48 48 51 51 56 58 56 52 52 52 51 52 52 53
25 26 26 27 29 26 36 36 40 44 46 35 40 33 36 34 33 33 25 29 30 36 36 36 41 45 48 48 50 51 53 54 54 54 52 52 53 53 53 55 59 58 57 56 58 56 55 57 54
26 24 23 25 26 27 33 36 39 42 45 38 51 32 28 30 22 30 40 43 48 48 42 46 43 45 45 47 49 49 49 51 52 50 48 49 49 51 54 56 58 59 57 57 56 55 53 56 54
26 26 27 27 28 29 31 33 39 37 36 36 42 44 31 33 32 39 47 45 48 58 57 44 40 45 44 45 47 47 49 50 50 50 49 49 50 51 52 53 53 53 52 53 52 51 48 48 49
26 26 27 29 30 31 32 33 36 37 35 40 39 42 50 57 53 49 54 38 40 26 35 44 44 45 47 46 47 49 50 50 51 50 50 50 51 52 53 52 53 52 52 52 51 48 48 47 46
26 27 27 29 31 32 32 33 34 36 39 41 39 45 48 55 55 53 51 44 34 40 41 46 47 45 48 49 49 48 50 50 50 51 52 51 52 52 52 52 52 51 52 52 51 50 48 48 45
28 29 30 30 30 30 30 31 32 35 37 38 40 43 44 45 48 42 49 51 55 51 50 51 49 46 47 49 50 49 51 51 52 54 52 49 51 52 52 51 52 54 54 53 52 49 49 48 47
29 29 29 31 31 31 31 34 35 36 40 38 39 39 38 41 43 42 44 49 50 52 52 52 52 51 49 50 52 52 51 53 54 55 58 54 52 56 55 56 56 56 54 55 54 52 49 49 49
31 32 33 34 34 34 33 36 36 38 41 40 41 40 42 43 45 42 45 52 52 51 53 53 53 54 53 53 53 53 54 54 54 55 56 59 59 60 62 60 59 58 57 56 54 53 52 50 48
35 36 35 33 35 36 36 37 36 41 43 42 43 41 48 50 46 46 47 52 54 54 53 54 52 55 55 54 54 54 54 56 55 55 56 60 62 58 59 57 55 54 54 54 52 53 52 50 47
34 35 35 36 37 38 37 37 36 43 43 42 44 41 47 54 49 48 49 52 52 52 54 53 54 50 54 54 51 53 52 52 50 50 48 45 45 45 45 45 46 46 47 48 49 50 50 48 45
36 36 38 41 36 38 38 38 34 40 40 41 38 36 44 52 46 47 47 48 48 48 48 50 50 49 48 48 49 46 44 39 34 33 31 30 32 35 39 37 36 33 33 34 38 46 48 46 44
39 39 41 43 42 38 41 40 37 38 40 43 36 34 40 46 44 45 44 43 44 46 46 47 46 46 44 43 42 42 37 37 40 38 37 38 43 39 34 33 38 39 38 36 35 37 39 43 46
43 42 45 44 44 41 39 39 42 42 37 42 38 39 40 42 42 43 44 43 43 45 45 45 45 45 44 44 43 43 40 39 41 41 38 37 39 37 37 41 44 40 41 40 39 40 39 41 44
45 47 47 45 46 42 43 41 43 51 45 43 42 41 44 43 42 43 46 46 47 47 47 48 48 47 47 47 48 47 45 45 44 44 41 43 45 47 47 47 47 44 46 47 46 43 45 45 47
45 50 47 46 45 44 45 46 44 52 55 48 44 43 44 49 47 44 47 47 49 51 51 52 52 52 52 52 52 53 52 50 51 51 50 51 53 53 52 55 57 57 56 56 53 51 51 45 47
50 52 50 49 49 43 48 57 44 52 57 54 45 44 44 49 49 51 49 52 54 54 54 55 55 56 57 57 57 57 57 56 56 56 55 57 60 60 61 62 63 63 63 63 63 61 57 56 50
54 55 53 52 52 45 55 59 49 58 58 60 51 45 47 53 52 53 52 54 58 56 57 58 59 59 59 59 60 61 63 62 63 62 62 62 64 64 65 65 65 65 65 65 64 62 60 60 58
59 59 55 56 57 54 59 57 52 58 60 64 56 53 52 52 53 57 56 58 60 61 63 62 62 62 62 62 63 63 67 67 68 70 69 68 68 67 68 68 67 68 67 67 66 63 59 58 59
60 61 64 63 62 63 57 58 61 63 60 60 62 56 53 55 57 60 58 62 63 64 65 65 67 67 67 68 68 68 70 71 71 71 71 69 69 69 69 69 70 67 65 65 64 64 63 63 63
66 64 71 68 64 66 60 61 64 71 67 65 63 63 63 63 63 65 60 59 61 62 64 69 71 70 70 73 71 70 70 70 70 70 70 71 71 70 70 69 67 69 71 73 75 76 75 76 76
72 71 72 73 70 71 65 64 67 73 77 71 67 66 67 65 62 52 61 66 64 61 65 64 56 55 65 69 70 68 68 69 72 73 73 73 72 72 72 73 75 78 81 83 83 82 83 81 79
77 75 78 79 74 75 72 67 66 74 78 78 74 69 69 62 62 65 72 65 63 61 57 58 58 68 75 71 75 69 71 78 79 81 81 82 82 82 83 83 85 85 86 86 86 87 86 83 79
Wind_Direction
216 219 224 232 222 207 202 206 211 211 218 210 220 226 233 231 239 226 261 257 272 245 251 289 306 276 296 311 310 315 301 274 256 252 254 259 262 263 263 264 267 270 272 275 279 283 283 287 290
225 220 229 235 232 234 219 206 214 213 217 234 236 231 227 231 234 245 252 253 240 280 266 267 279 284 291 291 304 302 296 294 283 273 262 260 263 268 271 273 276 279 282 282 283 283 287 291 297
227 222 227 235 236 234 239 231 211 215 231 223 220 240 236 230 235 243 250 247 262 269 271 267 269 268 273 279 290 296 289 284 286 283 278 274 272 281 286 282 280 281 284 287 288 285 289 294 298
229 228 225 235 237 232 247 243 234 239 247 257 240 249 255 248 241 242 247 257 265 264 265 269 264 263 272 279 282 289 288 288 287 282 274 270 271 282 286 287 288 289 282 280 287 287 287 292 296
230 232 234 233 243 236 239 244 238 242 251 258 262 265 270 266 262 260 256 264 266 271 270 267 268 273 275 278 281 282 284 284 286 283 280 271 264 267 277 280 282 283 282 284 289 286 288 291 289
239 239 240 242 238 240 245 247 248 243 252 258 273 274 270 263 270 270 267 271 276 274 271 266 265 270 275 279 282 282 284 287 287 285 281 278 272 265 265 274 280 279 277 279 284 283 284 287 286
245 244 240 236 239 236 240 245 247 251 245 234 203 229 247 264 267 267 274 270 276 271 264 264 269 273 277 280 282 284 285 286 287 284 282 280 275 269 267 274 281 279 280 280 280 282 284 283 283
244 245 248 247 245 244 240 240 243 249 233 218 220 235 241 260 280 267 262 261 277 274 267 264 269 276 280 281 283 285 286 286 285 284 282 278 274 269 270 271 279 280 280 281 283 285 285 285 285
250 254 253 253 250 246 249 244 241 245 247 226 222 252 260 259 267 258 266 267 273 269 273 274 276 275 278 279 280 282 283 283 282 281 280 277 275 273 270 271 273 277 278 278 279 279 282 283 284
247 250 250 249 245 239 244 246 242 242 246 236 227 239 251 253 264 266 257 270 272 278 286 287 280 277 275 276 276 276 275 276 277 277 277 277 276 274 274 274 275 277 279 279 278 279 280 283 286
245 248 248 251 249 248 248 253 255 244 245 242 236 226 225 234 237 245 255 280 289 283 281 281 278 279 276 275 275 276 277 277 278 278 277 277 276 275 275 276 275 276 277 278 279 280 279 280 284
247 247 248 248 251 252 254 253 256 255 248 241 242 242 244 246 252 255 260 268 281 289 284 283 281 280 280 278 279 279 278 278 279 278 278 278 277 277 277 277 278 278 278 279 279 279 281 281 281
250 250 250 250 250 251 255 259 261 263 262 249 247 246 244 244 248 253 260 252 243 273 280 280 278 279 283 283 282 282 281 280 279 281 281 281 281 280 281 282 281 280 280 279 280 279 277 276 275
252 251 253 257 258 259 259 260 262 262 263 265 264 265 264 266 262 267 264 258 255 269 275 274 276 277 278 279 280 280 281 281 281 281 278 278 280 281 282 283 283 283 282 282 279 278 279 279 276
252 256 259 259 260 260 260 261 261 265 263 267 269 267 270 270 269 270 273 270 267 270 274 276 277 276 274 275 276 277 277 279 281 283 284 283 281 282 282 282 281 278 277 277 279 281 281 280 280
254 253 253 258 260 261 261 261 264 267 267 269 271 275 273 271 273 274 273 274 274 273 274 275 277 276 275 275 275 276 276 275 276 276 277 281 282 283 283 282 280 278 276 275 274 273 273 274 277
254 255 256 259 264 264 263 266 267 266 268 268 269 272 274 274 272 272 272 275 278 277 275 276 276 277 275 277 277 279 280 281 282 281 282 285 285 282 280 280 279 277 275 274 272 272 271 270 269
256 260 262 263 264 266 268 268 268 270 271 273 272 274 275 274 275 274 275 276 277 280 282 280 279 280 282 281 281 281 280 281 283 283 288 290 292 282 280 279 278 277 276 275 271 268 268 266 264
258 262 264 262 261 269 267 268 266 273 276 274 274 275 273 275 277 275 275 276 277 278 278 281 281 280 279 280 280 276 279 283 282 279 269 263 264 283 295 292 285 280 286 288 277 267 263 262 257
261 262 264 265 264 264 270 272 270 271 274 277 279 277 273 276 276 275 274 273 273 275 277 278 280 281 280 281 281 283 282 278 276 280 280 274 279 280 275 283 286 283 288 285 284 277 273 265 255
262 265 265 265 266 266 270 276 277 270 267 278 279 281 277 280 282 276 274 274 274 277 280 281 283 285 288 286 285 287 288 286 285 286 286 281 279 277 268 272 275 279 286 286 284 280 271 264 258
265 263 265 265 266 267 267 271 278 277 272 271 276 275 279 279 277 276 277 279 281 282 283 284 286 287 287 287 287 287 286 285 284 283 280 277 275 276 278 273 273 278 278 286 284 280 277 273 258
263 265 265 267 268 269 275 270 271 277 278 271 270 272 278 279 279 279 279 282 283 285 287 288 289 291 290 288 288 288 288 287 284 282 279 279 278 277 276 275 276 278 279 278 279 280 277 272 267
264 266 266 267 269 273 275 273 272 272 272 275 275 276 276 277 277 279 281 281 281 284 284 285 287 288 288 290 290 291 291 290 288 288 286 282 280 279 278 278 278 278 278 278 277 275 275 272 267
265 265 268 271 273 272 272 272 276 276 277 277 274 273 269 271 278 279 280 282 282 282 283 283 283 284 285 286 287 289 289 289 290 289 288 286 284 283 282 282 282 282 282 281 281 279 275 270 266
267 268 270 270 272 271 274 280 277 271 273 278 278 276 273 273 277 279 281 278 280 282 282 282 283 283 285 286 286 287 287 289 289 289 289 289 288 287 286 286 285 284 283 282 282 279 277 274 269
265 270 272 271 273 273 275 276 274 274 272 274 279 279 278 276 276 275 275 280 283 283 285 286 286 286 286 286 288 289 289 290 290 290 290 289 288 287 286 285 285 285 285 286 284 282 279 277 274
269 268 273 274 272 274 273 275 277 277 278 277 277 279 281 277 278 277 278 277 278 281 282 281 283 282 287 289 290 290 291 292 293 292 292 291 290 289 287 286 283 284 285 285 284 283 281 280 278
266 266 267 268 273 273 274 276 276 279 282 280 279 280 282 284 282 276 285 288 288 282 281 286 282 284 289 290 291 291 292 293 293 294 293 292 291 290 288 285 283 284 286 286 285 283 282 281 280
270 271 271 270 271 273 269 271 271 273 277 279 279 279 282 285 278 275 282 288 284 279 278 273 280 296 292 289 287 286 294 295 294 293 292 291 289 288 287 285 285 285 285 286 286 286 284 283 282
Height
10962 10965 10969 10970 10973 10979 10981 10981 10979 10984 10985 10988 10990 10991 10994 10998 11000 11001 11004 11005 11005 11005 11006 11007 11007 11008 11009 11009 11008 11008 11007 11007 11007 11006 11006 11005 11004 11004 11003 11003 11003 11002 11001 11001 11000 10999 10998 10997 10995
10958 10962 10964 10964 10967 10972 10977 10977 10974 10980 10987 10990 10985 10988 10990 10993 10997 10996 11002 11003 11002 11004 11005 11005 11005 11006 11006 11006 11006 11006 11006 11007 11007 11006 11005 11003 11001 11000 10999 10999 10998 10997 10997 10996 10995 10994 10993 10993 10992
10954 10958 10960 10960 10965 10969 10972 10973 10974 10982 10983 10983 10987 10988 10989 10990 10991 10993 10996 10999 11000 11000 11002 11003 11003 11003 11004 11004 11004 11003 11004 11004 11004 11004 11004 11002 11000 10998 10997 10995 10993 10992 10991 10991 10990 10990 10990 10989 10988
10952 10954 10957 10957 10960 10966 10967 10966 10978 10979 10976 10975 10980 10981 10984 10988 10988 10989 10991 10992 10994 10996 10997 10998 10999 11000 11000 11000 11000 11000 11000 11000 11000 11000 10999 10998 10996 10994 10992 10990 10989 10988 10987 10986 10985 10984 10984 10984 10982
10948 10951 10953 10957 10960 10962 10960 10965 10971 10970 10969 10969 10970 10974 10975 10979 10982 10983 10984 10988 10989 10990 10992 10993 10994 10995 10995 10995 10995 10995 10996 10996 10996 10996 10995 10993 10991 10989 10986 10985 10984 10983 10982 10982 10981 10980 10978 10978 10976
10946 10949 10952 10954 10955 10956 10958 10960 10962 10964 10965 10967 10969 10969 10971 10974 10977 10979 10979 10982 10984 10985 10986 10986 10987 10987 10988 10989 10988 10989 10989 10989 10990 10990 10989 10987 10985 10982 10979 10977 10976 10976 10976 10977 10975 10973 10971 10970 10969
10942 10944 10944 10946 10948 10950 10951 10953 10958 10960 10962 10966 10964 10960 10964 10969 10973 10975 10972 10976 10977 10976 10976 10978 10978 10979 10979 10980 10980 10981 10982 10982 10982 10982 10982 10981 10979 10977 10974 10971 10970 10970 10971 10971 10969 10966 10964 10963 10961
10936 10936 10940 10945 10947 10946 10943 10947 10955 10952 10957 10961 10959 10957 10961 10963 10968 10971 10967 10967 10971 10971 10971 10971 10972 10972 10972 10973 10972 10972 10972 10972 10972 10972 10972 10972 10971 10969 10967 10964 10961 10962 10963 10964 10960 10960 10954 10953 10952
10932 10934 10937 10939 10941 10942 10937 10943 10949 10943 10949 10962 10953 10950 10955 10958 10961 10969 10965 10962 10969 10969 10966 10966 10966 10967 10966 10965 10964 10963 10963 10962 10962 10962 10961 10961 10960 10958 10956 10955 10954 10953 10952 10953 10952 10951 10946 10942 10944
10930 10931 10933 10933 10936 10936 10932 10935 10937 10941 10947 10953 10946 10947 10947 10953 10956 10963 10968 10956 10953 10955 10959 10958 10958 10957 10957 10956 10955 10954 10953 10952 10952 10952 10951 10951 10950 10948 10947 10946 10944 10942 10943 10941 10940 10940 10940 10935 10936
10927 10927 10927 10928 10930 10930 10929 10931 10927 10939 10939 10941 10940 10943 10944 10947 10955 10957 10957 10956 10946 10941 10942 10949 10952 10946 10948 10944 10945 10945 10943 10943 10942 10943 10942 10942 10940 10939 10938 10936 10935 10935 10933 10930 10930 10932 10931 10930 10927
10920 10921 10922 10923 10924 10925 10924 10926 10923 10928 10933 10933 10938 10937 10937 10941 10946 10949 10948 10951 10942 10934 10931 10931 10938 10938 10934 10937 10936 10935 10934 10934 10932 10933 10933 10933 10930 10928 10927 10927 10926 10925 10923 10920 10920 10921 10920 10918 10915
10915 10915 10916 10917 10919 10920 10921 10921 10920 10919 10920 10926 10930 10930 10935 10936 10938 10942 10935 10946 10930 10930 10930 10926 10932 10934 10924 10923 10926 10925 10924 10924 10924 10922 10922 10923 10920 10918 10917 10916 10916 10915 10911 10910 10908 10909 10907 10903 10905
10909 10910 10910 10911 10914 10916 10916 10916 10915 10914 10910 10914 10917 10917 10920 10922 10926 10928 10924 10926 10926 10923 10925 10924 10924 10927 10921 10917 10916 10916 10912 10913 10913 10911 10912 10915 10911 10908 10908 10907 10905 10901 10898 10897 10897 10898 10896 10892 10891
10904 10905 10906 10905 10907 10908 10910 10909 10909 10909 10906 10909 10908 10911 10915 10914 10914 10920 10918 10913 10918 10917 10919 10915 10911 10912 10913 10912 10908 10908 10910 10906 10904 10900 10894 10900 10903 10898 10897 10894 10892 10890 10889 10886 10886 10887 10886 10881 10879
10899 10899 10899 10899 10900 10901 10903 10902 10904 10902 10899 10902 10902 10905 10904 10904 10905 10912 10907 10899 10905 10907 10905 10903 10899 10897 10899 10899 10898 10897 10897 10898 10897 10896 10893 10889 10890 10887 10883 10881 10878 10875 10875 10876 10876 10875 10874 10870 10869
10890 10890 10892 10895 10894 10894 10895 10895 10897 10894 10893 10895 10897 10901 10892 10890 10899 10899 10897 10890 10888 10890 10892 10890 10890 10883 10884 10886 10886 10886 10884 10882 10884 10884 10883 10878 10878 10876 10869 10866 10864 10862 10861 10861 10862 10862 10862 10860 10858
10883 10884 10886 10887 10886 10886 10887 10888 10890 10884 10885 10888 10888 10895 10885 10877 10886 10889 10885 10882 10880 10876 10874 10875 10877 10875 10869 10873 10874 10872 10873 10872 10874 10874 10876 10873 10861 10858 10856 10854 10850 10850 10849 10848 10848 10849 10849 10850 10848
10876 10877 10877 10875 10880 10877 10877 10878 10883 10876 10877 10877 10881 10886 10877 10867 10876 10876 10876 10874 10869 10869 10867 10862 10863 10866 10864 10861 10861 10865 10862 10862 10859 10862 10865 10862 10855 10846 10847 10844 10841 10840 10839 10838 10836 10835 10837 10838 10839
10866 10867 10866 10866 10868 10870 10867 10869 10872 10870 10869 10866 10874 10875 10868 10862 10865 10865 10865 10866 10862 10860 10858 10856 10854 10853 10855 10854 10851 10852 10854 10852 10849 10851 10851 10850 10845 10843 10840 10836 10833 10833 10831 10829 10828 10827 10827 10828 10829
10855 10857 10854 10856 10856 10861 10860 10859 10856 10858 10863 10856 10864 10862 10859 10856 10856 10855 10855 10855 10854 10852 10850 10847 10845 10843 10842 10842 10843 10842 10844 10844 10842 10841 10842 10839 10834 10832 10832 10827 10823 10823 10821 10818 10817 10816 10817 10819 10819
10844 10844 10843 10845 10845 10850 10848 10852 10849 10838 10847 10851 10850 10852 10849 10848 10849 10848 10845 10845 10842 10841 10840 10838 10837 10835 10834 10832 10830 10831 10833 10833 10833 10832 10833 10829 10826 10821 10818 10816 10813 10811 10809 10807 10805 10804 10805 10807 10809
10834 10829 10833 10833 10835 10837 10838 10838 10840 10829 10828 10837 10841 10841 10840 10835 10836 10838 10835 10835 10832 10828 10827 10825 10824 10824 10822 10820 10819 10818 10819 10820 10819 10819 10819 10818 10811 10809 10807 10803 10801 10799 10796 10794 10793 10792 10792 10794 10794
10819 10817 10820 10820 10822 10830 10825 10813 10833 10822 10815 10821 10829 10831 10831 10825 10826 10825 10827 10824 10818 10817 10815 10813 10812 10810 10809 10807 10806 10805 10805 10804 10803 10803 10804 10801 10795 10794 10791 10787 10784 10782 10780 10777 10777 10777 10777 10777 10780
10803 10803 10807 10809 10808 10819 10805 10802 10819 10806 10805 10800 10814 10820 10818 10811 10814 10813 10814 10812 10803 10804 10801 10800 10799 10798 10796 10795 10793 10791 10788 10788 10787 10786 10785 10783 10778 10775 10771 10770 10767 10764 10761 10759 10758 10757 10757 10758 10760
10790 10789 10794 10793 10792 10799 10791 10796 10804 10795 10792 10786 10799 10802 10802 10803 10801 10797 10798 10797 10792 10790 10786 10785 10783 10781 10780 10780 10778 10776 10770 10772 10770 10766 10765 10765 10760 10757 10752 10749 10747 10745 10742 10740 10739 10738 10738 10738 10738
10782 10779 10772 10776 10779 10778 10785 10781 10776 10775 10778 10780 10780 10788 10792 10789 10785 10781 10785 10785 10783 10777 10773 10770 10767 10764 10762 10761 10761 10760 10754 10752 10753 10749 10744 10744 10742 10737 10734 10730 10727 10725 10723 10719 10718 10718 10718 10717 10718
10762 10765 10753 10759 10763 10757 10768 10766 10760 10748 10759 10765 10769 10768 10768 10768 10766 10767 10769 10767 10766 10765 10761 10754 10751 10747 10745 10741 10742 10740 10738 10735 10732 10730 10727 10721 10718 10717 10714 10710 10707 10705 10703 10700 10696 10695 10697 10695 10694
10740 10743 10742 10735 10742 10740 10753 10755 10747 10734 10732 10745 10748 10747 10746 10746 10749 10747 10748 10743 10744 10744 10743 10741 10734 10735 10731 10727 10725 10724 10721 10719 10716 10712 10709 10705 10700 10696 10693 10691 10687 10684 10681 10678 10674 10671 10668 10668 10667
10718 10725 10721 10720 10732 10723 10730 10743 10739 10725 10716 10717 10727 10730 10729 10728 10732 10730 10732 10728 10722 10724 10728 10724 10717 10717 10715 10714 10709 10705 10702 10699 10697 10693 10689 10685 10680 10676 10672 10669 10664 10660 10656 10652 10646 10641 10638 10641 10638